INTELSAT 40E (IS-40E)

Last updated on Tue Oct 08 2024 00:02:42 GMT+0000 (Coordinated Universal Time)

1 56174U 23052A 24281.19285382 -.00000163 00000+0 00000+0 0 9999 2 56174 0.0105 224.5407 0002441 319.3445 170.8965 1.00271754 5621
UTC large
Height (km)
Speed (km/s)
/
Latitude / Longitude
Inclination (degrees)
Orbital Period (minutes)
Azimuth
Elevation
Range (km)
Doppler Factor

Next 0 passes for location: London (51.5072 / 0.1276)

Sorry there are no passes over London.